DAL4522 KJFK-LPPT

Flight info

Callsign DAL4522
Flight time N/A
Altitude 37000
Route SHIPP Y487 ISLES SLATN 40N060W 41N050W 43N040W 4230N03000W 41N020W ERPES LAZET LAZE2A
Aircraft B772/H-SDE2E3FGHIJ5LORVWXY/LB1D1

Departure

Time 2026-05-05 23:47
Airport John F. Kennedy International Airport (KJFK)

Arrival

Time N/A
Airport Lisbon Humberto Delgado Airport (LPPT)
Time Latitude Longitude Altitude Speed Heading
2026-05-05 23:35 40.64067 -73.78118 25 ft 0 kts 239°
2026-05-05 23:40 40.64079 -73.78092 30 ft 4 kts 239°
2026-05-05 23:40 40.64093 -73.78061 30 ft 4 kts 239°
2026-05-05 23:40 40.64105 -73.78033 30 ft 4 kts 231°
2026-05-05 23:40 40.64114 -73.78020 30 ft 4 kts 174°
2026-05-05 23:41 40.64130 -73.78031 30 ft 4 kts 141°
2026-05-05 23:41 40.64133 -73.78035 30 ft 0 kts 142°
2026-05-05 23:42 40.64102 -73.78003 30 ft 13 kts 142°
2026-05-05 23:42 40.64063 -73.77882 28 ft 16 kts 64°
2026-05-05 23:43 40.64158 -73.77691 30 ft 27 kts 60°
2026-05-05 23:43 40.64148 -73.77514 28 ft 18 kts 141°
2026-05-05 23:43 40.64052 -73.77403 27 ft 18 kts 128°
2026-05-05 23:43 40.64068 -73.77268 30 ft 17 kts 30°
2026-05-05 23:44 40.64182 -73.77180 29 ft 21 kts 31°
2026-05-05 23:44 40.64309 -73.77081 28 ft 21 kts 31°
2026-05-05 23:44 40.64442 -73.76997 28 ft 21 kts 11°
2026-05-05 23:44 40.64581 -73.76932 28 ft 21 kts 28°
2026-05-05 23:45 40.64711 -73.76831 27 ft 21 kts 31°
2026-05-05 23:45 40.64838 -73.76728 28 ft 21 kts 31°
2026-05-05 23:45 40.64966 -73.76627 28 ft 22 kts 30°
2026-05-05 23:45 40.65086 -73.76525 30 ft 18 kts 53°
2026-05-05 23:46 40.65066 -73.76402 27 ft 14 kts 119°
2026-05-05 23:46 40.64995 -73.76380 26 ft 8 kts 209°
2026-05-05 23:46 40.64989 -73.76385 27 ft 1 kts 211°
2026-05-05 23:46 40.64857 -73.76484 27 ft 54 kts 210°
2026-05-05 23:47 40.64335 -73.76890 28 ft 119 kts 211°
2026-05-05 23:47 40.63474 -73.77559 117 ft 164 kts 207°
2026-05-05 23:47 40.62400 -73.78337 570 ft 182 kts 206°
2026-05-05 23:47 40.61247 -73.79179 1119 ft 195 kts 208°
2026-05-05 23:48 40.60049 -73.80095 1819 ft 206 kts 213°
2026-05-05 23:48 40.58838 -73.81138 2289 ft 211 kts 216°
2026-05-05 23:48 40.57472 -73.81921 2554 ft 226 kts 188°
2026-05-05 23:48 40.55878 -73.81542 2982 ft 245 kts 162°
2026-05-05 23:49 40.54422 -73.80252 3446 ft 261 kts 142°
2026-05-05 23:49 40.53333 -73.78275 3887 ft 274 kts 126°
2026-05-05 23:49 40.52448 -73.76016 4379 ft 280 kts 122°
2026-05-05 23:49 40.51603 -73.73692 4875 ft 284 kts 121°
2026-05-05 23:50 40.50749 -73.71328 5374 ft 287 kts 121°
2026-05-05 23:50 40.49881 -73.68956 5877 ft 290 kts 121°
2026-05-05 23:50 40.48992 -73.66560 6354 ft 293 kts 121°
2026-05-05 23:50 40.48087 -73.64145 6844 ft 295 kts 121°
2026-05-05 23:51 40.47175 -73.61734 7352 ft 295 kts 121°
2026-05-05 23:51 40.46256 -73.59317 7873 ft 296 kts 121°
2026-05-05 23:51 40.45329 -73.56890 8327 ft 298 kts 121°
2026-05-05 23:51 40.44393 -73.54450 8793 ft 301 kts 121°
2026-05-05 23:52 40.43449 -73.51989 9266 ft 302 kts 121°
2026-05-05 23:52 40.42499 -73.49517 9728 ft 304 kts 121°
2026-05-05 23:52 40.41543 -73.47035 10166 ft 306 kts 121°
2026-05-05 23:52 40.40579 -73.44541 10626 ft 307 kts 121°
2026-05-05 23:53 40.39623 -73.42067 11112 ft 309 kts 121°
2026-05-05 23:53 40.38635 -73.39514 11388 ft 322 kts 121°
2026-05-05 23:53 40.37589 -73.36818 11537 ft 341 kts 121°
2026-05-05 23:53 40.36485 -73.33970 11703 ft 361 kts 121°
2026-05-05 23:54 40.35320 -73.30958 11935 ft 378 kts 121°
2026-05-05 23:54 40.34112 -73.27840 12466 ft 388 kts 120°
2026-05-05 23:54 40.32868 -73.24668 13125 ft 394 kts 122°
2026-05-05 23:54 40.31462 -73.21589 13843 ft 395 kts 126°
2026-05-05 23:55 40.29933 -73.18571 14516 ft 399 kts 127°
2026-05-05 23:55 40.28376 -73.15543 15202 ft 402 kts 127°
2026-05-05 23:55 40.26827 -73.12478 15894 ft 406 kts 127°
2026-05-05 23:55 40.25273 -73.09368 16597 ft 410 kts 126°
2026-05-05 23:56 40.23713 -73.06232 17293 ft 413 kts 126°
2026-05-05 23:56 40.22132 -73.03062 17974 ft 417 kts 126°
2026-05-05 23:56 40.20542 -72.99874 18615 ft 421 kts 126°
2026-05-05 23:56 40.18936 -72.96658 19197 ft 424 kts 126°
2026-05-05 23:57 40.17312 -72.93406 19779 ft 429 kts 126°
2026-05-05 23:57 40.15674 -72.90128 20347 ft 434 kts 126°
2026-05-05 23:57 40.14014 -72.86810 20925 ft 438 kts 126°
2026-05-05 23:57 40.12339 -72.83467 21506 ft 442 kts 126°
2026-05-05 23:58 40.10642 -72.80088 22052 ft 447 kts 126°
2026-05-05 23:58 40.08966 -72.76641 22636 ft 451 kts 123°
2026-05-05 23:58 40.07357 -72.73099 23207 ft 456 kts 122°
2026-05-05 23:58 40.05783 -72.69551 23725 ft 460 kts 122°
2026-05-05 23:59 40.04173 -72.65928 24186 ft 463 kts 122°
2026-05-05 23:59 40.02540 -72.62289 24662 ft 466 kts 122°
2026-05-05 23:59 40.00887 -72.58643 25107 ft 469 kts 122°
2026-05-05 23:59 39.99217 -72.54977 25545 ft 472 kts 122°
2026-05-06 00:00 39.97530 -72.51282 25967 ft 475 kts 122°
2026-05-06 00:00 39.95844 -72.47565 26373 ft 478 kts 121°
2026-05-06 00:00 39.94177 -72.43796 26758 ft 481 kts 120°
2026-05-06 00:00 39.92518 -72.40000 27167 ft 484 kts 120°
2026-05-06 00:01 39.90852 -72.36183 27545 ft 486 kts 120°
2026-05-06 00:01 39.89171 -72.32339 27912 ft 489 kts 120°
2026-05-06 00:01 39.87479 -72.28487 28286 ft 491 kts 119°
2026-05-06 00:01 39.85773 -72.24618 28653 ft 494 kts 119°
2026-05-06 00:02 39.84079 -72.20785 28980 ft 496 kts 119°
2026-05-06 00:02 39.82351 -72.16882 29324 ft 499 kts 119°
2026-05-06 00:02 39.80612 -72.12959 29630 ft 501 kts 119°
2026-05-06 00:02 39.78868 -72.09029 29932 ft 503 kts 119°
2026-05-06 00:03 39.77114 -72.05078 30208 ft 505 kts 119°
2026-05-06 00:03 39.75353 -72.01118 30445 ft 507 kts 119°
2026-05-06 00:03 39.73576 -71.97149 30691 ft 509 kts 120°
2026-05-06 00:03 39.71757 -71.93197 30921 ft 510 kts 120°
2026-05-06 00:04 39.70109 -71.89670 31138 ft 511 kts 120°
2026-05-06 00:04 39.68256 -71.85729 31435 ft 510 kts 120°
2026-05-06 00:04 39.66412 -71.81807 31807 ft 508 kts 120°
2026-05-06 00:04 39.64583 -71.77910 32194 ft 505 kts 120°
2026-05-06 00:05 39.60944 -71.70138 32846 ft 502 kts 120°
2026-05-06 00:05 39.59135 -71.66275 33147 ft 501 kts 120°
2026-05-06 00:05 39.57330 -71.62425 33477 ft 499 kts 120°
2026-05-06 00:06 39.55529 -71.58589 33800 ft 498 kts 120°
2026-05-06 00:06 39.53728 -71.54757 34108 ft 496 kts 120°
2026-05-06 00:06 39.51931 -71.50940 34347 ft 496 kts 120°
2026-05-06 00:06 39.50159 -71.47180 34548 ft 496 kts 120°
2026-05-06 00:07 39.48337 -71.43316 34762 ft 496 kts 120°
2026-05-06 00:07 39.46557 -71.39550 34957 ft 497 kts 121°
2026-05-06 00:07 39.44817 -71.35688 35044 ft 498 kts 115°
2026-05-06 00:08 39.42563 -71.27215 35091 ft 500 kts 100°
2026-05-06 00:08 39.41837 -71.18278 35104 ft 502 kts 91°
2026-05-06 00:09 39.41426 -71.09216 35105 ft 506 kts 91°
2026-05-06 00:09 39.40979 -71.00103 35104 ft 509 kts 92°
2026-05-06 00:10 39.40480 -70.90973 35103 ft 509 kts 92°
2026-05-06 00:10 39.39956 -70.81853 35105 ft 508 kts 92°
2026-05-06 00:11 39.39426 -70.72758 35111 ft 505 kts 92°
2026-05-06 00:11 39.38895 -70.63721 35110 ft 503 kts 92°
2026-05-06 00:12 39.38360 -70.54716 35117 ft 502 kts 92°
2026-05-06 00:12 39.37821 -70.45735 35121 ft 501 kts 93°
2026-05-06 00:13 39.37278 -70.36817 35125 ft 501 kts 93°
2026-05-06 00:13 39.36725 -70.27843 35131 ft 501 kts 93°
2026-05-06 00:14 39.36163 -70.18848 35136 ft 501 kts 93°
2026-05-06 00:14 39.35595 -70.09866 35137 ft 502 kts 94°
2026-05-06 00:15 39.35117 -70.02399 35143 ft 502 kts 94°
2026-05-06 00:15 39.34535 -69.93403 35145 ft 502 kts 94°
2026-05-06 00:16 39.33947 -69.84410 35150 ft 502 kts 94°
2026-05-06 00:16 39.33352 -69.75426 35151 ft 502 kts 94°
2026-05-06 00:17 39.32750 -69.66441 35155 ft 502 kts 94°
2026-05-06 00:17 39.32141 -69.57464 35157 ft 502 kts 94°
2026-05-06 00:18 39.31525 -69.48484 35160 ft 502 kts 94°
2026-05-06 00:18 39.30903 -69.39508 35164 ft 502 kts 94°
2026-05-06 00:19 39.30274 -69.30538 35166 ft 502 kts 95°
2026-05-06 00:19 39.29637 -69.21563 35168 ft 502 kts 95°
2026-05-06 00:20 39.28994 -69.12597 35175 ft 502 kts 95°
2026-05-06 00:20 39.28348 -69.03684 35176 ft 502 kts 95°
2026-05-06 00:21 39.27691 -68.94709 35177 ft 502 kts 95°
2026-05-06 00:21 39.27026 -68.85728 35181 ft 502 kts 95°
2026-05-06 00:22 39.26355 -68.76759 35184 ft 502 kts 95°
2026-05-06 00:22 39.25677 -68.67783 35186 ft 502 kts 95°
2026-05-06 00:23 39.24992 -68.58817 35190 ft 502 kts 95°
2026-05-06 00:23 39.24300 -68.49851 35191 ft 502 kts 96°
2026-05-06 00:24 39.23602 -68.40891 35197 ft 502 kts 96°
2026-05-06 00:24 39.22897 -68.31934 35196 ft 502 kts 96°
2026-05-06 00:25 39.22184 -68.22976 35201 ft 502 kts 96°
2026-05-06 00:25 39.21465 -68.14020 35201 ft 502 kts 96°
2026-05-06 00:26 39.20745 -68.05129 35204 ft 502 kts 96°
2026-05-06 00:26 39.20012 -67.96178 35207 ft 502 kts 96°
2026-05-06 00:27 39.19273 -67.87238 35209 ft 502 kts 96°
2026-05-06 00:27 39.18527 -67.78292 35213 ft 502 kts 96°
2026-05-06 00:28 39.17775 -67.69355 35213 ft 502 kts 96°
2026-05-06 00:28 39.17015 -67.60418 35215 ft 502 kts 97°
2026-05-06 00:29 39.16248 -67.51471 35218 ft 502 kts 97°
2026-05-06 00:29 39.15474 -67.42519 35218 ft 502 kts 97°
2026-05-06 00:30 39.14693 -67.33573 35220 ft 503 kts 97°
2026-05-06 00:30 39.13905 -67.24627 35224 ft 503 kts 97°
2026-05-06 00:31 39.13114 -67.15727 35225 ft 503 kts 97°
2026-05-06 00:31 39.12314 -67.06771 35229 ft 503 kts 97°
2026-05-06 00:32 39.12230 -66.97770 35233 ft 504 kts 86°
2026-05-06 00:32 39.13330 -66.88854 35241 ft 504 kts 78°
2026-05-06 00:33 39.14773 -66.80004 35237 ft 505 kts 78°
2026-05-06 00:33 39.16206 -66.71132 35235 ft 506 kts 78°
2026-05-06 00:34 39.17601 -66.62230 35240 ft 507 kts 79°
2026-05-06 00:34 39.18973 -66.53318 35242 ft 507 kts 79°
2026-05-06 00:35 39.20339 -66.44384 35242 ft 508 kts 79°
2026-05-06 00:35 39.21700 -66.35445 35245 ft 508 kts 79°
2026-05-06 00:36 39.23057 -66.26498 35245 ft 509 kts 79°
2026-05-06 00:36 39.24409 -66.17536 35248 ft 509 kts 79°
2026-05-06 00:37 39.25755 -66.08567 35247 ft 509 kts 79°
2026-05-06 00:37 39.27094 -65.99589 35249 ft 509 kts 79°
2026-05-06 00:38 39.28427 -65.90605 35257 ft 510 kts 79°
2026-05-06 00:38 39.29745 -65.81670 35255 ft 510 kts 80°
2026-05-06 00:39 39.31065 -65.72673 35257 ft 510 kts 80°
2026-05-06 00:39 39.32380 -65.63659 35261 ft 511 kts 80°
2026-05-06 00:40 39.33688 -65.54638 35260 ft 511 kts 80°
2026-05-06 00:40 39.34991 -65.45606 35264 ft 512 kts 80°
2026-05-06 00:41 39.36289 -65.36552 35270 ft 513 kts 80°
2026-05-06 00:41 39.37582 -65.27487 35270 ft 513 kts 81°
2026-05-06 00:42 39.38869 -65.18404 35272 ft 514 kts 81°
2026-05-06 00:42 39.40152 -65.09302 35275 ft 514 kts 81°
2026-05-06 00:43 39.41427 -65.00199 35276 ft 515 kts 81°
2026-05-06 00:43 39.42697 -64.91078 35278 ft 516 kts 81°
2026-05-06 00:44 39.43961 -64.81948 35276 ft 516 kts 81°
2026-05-06 00:44 39.45219 -64.72809 35278 ft 516 kts 81°
2026-05-06 00:45 39.46462 -64.63716 35274 ft 517 kts 81°
2026-05-06 00:45 39.47707 -64.54559 35280 ft 517 kts 81°
2026-05-06 00:46 39.48946 -64.45384 35280 ft 517 kts 81°
2026-05-06 00:46 39.50179 -64.36206 35287 ft 518 kts 81°
2026-05-06 00:47 39.51405 -64.27014 35284 ft 518 kts 82°
2026-05-06 00:47 39.52624 -64.17818 35284 ft 518 kts 82°
2026-05-06 00:48 39.53838 -64.08606 35288 ft 519 kts 82°
2026-05-06 00:48 39.55045 -63.99387 35289 ft 519 kts 82°
2026-05-06 00:49 39.56238 -63.90214 35291 ft 520 kts 82°
2026-05-06 00:49 39.57433 -63.80973 35294 ft 520 kts 82°
2026-05-06 00:50 39.58621 -63.71719 35293 ft 520 kts 82°
2026-05-06 00:50 39.59802 -63.62461 35293 ft 521 kts 82°
2026-05-06 00:51 39.60977 -63.53193 35293 ft 521 kts 82°
2026-05-06 00:51 39.62145 -63.43918 35297 ft 521 kts 82°
2026-05-06 00:52 39.63300 -63.34684 35299 ft 521 kts 82°
2026-05-06 00:52 39.64453 -63.25400 35300 ft 522 kts 83°
2026-05-06 00:53 39.65601 -63.16101 35303 ft 522 kts 83°
2026-05-06 00:53 39.66742 -63.06790 35310 ft 522 kts 83°
2026-05-06 00:54 39.67876 -62.97476 35304 ft 522 kts 83°
2026-05-06 00:54 39.69001 -62.88166 35299 ft 522 kts 83°
2026-05-06 00:55 39.70120 -62.78842 35305 ft 522 kts 83°
2026-05-06 00:55 39.71225 -62.69575 35305 ft 522 kts 83°
2026-05-06 00:56 39.72336 -62.60187 35303 ft 523 kts 83°
2026-05-06 00:56 39.73425 -62.50921 35319 ft 523 kts 83°
2026-05-06 00:57 39.74516 -62.41579 35319 ft 523 kts 83°
2026-05-06 00:57 39.75598 -62.32233 35321 ft 523 kts 83°
2026-05-06 00:58 39.76674 -62.22882 35312 ft 523 kts 83°
2026-05-06 00:58 39.77742 -62.13524 35314 ft 524 kts 83°
2026-05-06 00:59 39.78804 -62.04160 35320 ft 524 kts 83°
2026-05-06 00:59 39.79859 -61.94783 35320 ft 524 kts 83°
2026-05-06 01:00 39.80906 -61.85401 35316 ft 524 kts 83°
2026-05-06 01:00 39.81947 -61.76010 35317 ft 525 kts 84°
2026-05-06 01:01 39.82981 -61.66609 35327 ft 525 kts 84°
2026-05-06 01:01 39.84002 -61.57257 35328 ft 525 kts 84°
2026-05-06 01:02 39.85022 -61.47838 35327 ft 526 kts 84°
2026-05-06 01:02 39.86035 -61.38411 35330 ft 526 kts 84°
2026-05-06 01:03 39.87041 -61.28978 35332 ft 526 kts 84°
2026-05-06 01:03 39.88039 -61.19540 35331 ft 526 kts 84°
2026-05-06 01:04 39.89031 -61.10092 35332 ft 527 kts 84°
2026-05-06 01:04 39.90015 -61.00640 35332 ft 527 kts 84°
2026-05-06 01:05 39.90992 -60.91182 35335 ft 527 kts 84°
2026-05-06 01:05 39.91797 -60.83325 35332 ft 527 kts 84°
2026-05-06 01:06 39.92763 -60.73829 35456 ft 530 kts 84°
2026-05-06 01:06 39.93242 -60.69082 35659 ft 529 kts 84°
2026-05-06 01:06 39.93721 -60.64328 35851 ft 529 kts 84°
2026-05-06 01:06 39.94198 -60.59578 36008 ft 529 kts 85°
2026-05-06 01:07 39.94827 -60.53262 36177 ft 531 kts 85°
2026-05-06 01:07 39.95620 -60.45261 36421 ft 531 kts 85°
2026-05-06 01:07 39.96091 -60.40489 36554 ft 532 kts 85°
2026-05-06 01:08 39.96561 -60.35698 36697 ft 533 kts 85°
2026-05-06 01:08 39.97029 -60.30908 36826 ft 533 kts 85°
2026-05-06 01:08 39.97489 -60.26175 36943 ft 534 kts 85°
2026-05-06 01:08 39.97954 -60.21372 37073 ft 535 kts 85°
2026-05-06 01:09 39.98418 -60.16562 37184 ft 535 kts 85°
2026-05-06 01:09 39.99342 -60.06926 37327 ft 536 kts 86°
2026-05-06 01:10 40.00342 -59.97262 37348 ft 540 kts 83°
2026-05-06 01:10 40.01708 -59.87608 37352 ft 542 kts 81°
2026-05-06 01:11 40.03146 -59.77948 37355 ft 543 kts 82°
2026-05-06 01:11 40.04561 -59.68252 37354 ft 544 kts 82°
2026-05-06 01:12 40.05945 -59.58531 37355 ft 544 kts 82°
2026-05-06 01:12 40.07310 -59.48812 37356 ft 544 kts 82°
2026-05-06 01:13 40.08668 -59.39082 37355 ft 544 kts 82°
2026-05-06 01:13 40.10020 -59.29358 37362 ft 544 kts 82°
2026-05-06 01:14 40.12024 -59.14827 37359 ft 545 kts 82°
2026-05-06 01:14 40.13359 -59.05069 37363 ft 545 kts 82°
2026-05-06 01:15 40.14686 -58.95309 37365 ft 546 kts 83°
2026-05-06 01:15 40.16008 -58.85521 37367 ft 547 kts 83°
2026-05-06 01:16 40.17321 -58.75728 37369 ft 547 kts 83°
2026-05-06 01:16 40.18629 -58.65914 37372 ft 548 kts 83°
2026-05-06 01:17 40.19932 -58.56069 37376 ft 549 kts 83°
2026-05-06 01:17 40.21228 -58.46213 37371 ft 550 kts 83°
2026-05-06 01:18 40.22517 -58.36335 37373 ft 551 kts 83°
2026-05-06 01:18 40.23801 -58.26431 37375 ft 552 kts 83°
2026-05-06 01:19 40.25078 -58.16513 37387 ft 553 kts 83°
2026-05-06 01:19 40.26350 -58.06565 37385 ft 554 kts 83°
2026-05-06 01:20 40.27608 -57.96660 37373 ft 555 kts 83°
2026-05-06 01:20 40.28867 -57.86669 37376 ft 556 kts 83°
2026-05-06 01:21 40.30119 -57.76668 37377 ft 557 kts 83°
2026-05-06 01:21 40.31364 -57.66644 37377 ft 558 kts 83°
2026-05-06 01:22 40.32602 -57.56605 37378 ft 558 kts 83°
2026-05-06 01:22 40.33833 -57.46552 37386 ft 559 kts 83°
2026-05-06 01:23 40.35056 -57.36483 37383 ft 559 kts 84°
2026-05-06 01:23 40.36271 -57.26407 37381 ft 560 kts 84°
2026-05-06 01:24 40.37478 -57.16324 37387 ft 560 kts 84°
2026-05-06 01:24 40.38678 -57.06215 37382 ft 561 kts 84°
2026-05-06 01:25 40.39871 -56.96095 37390 ft 562 kts 84°
2026-05-06 01:25 40.41048 -56.86027 37388 ft 562 kts 84°
2026-05-06 01:26 40.42226 -56.75872 37385 ft 563 kts 84°
2026-05-06 01:26 40.43398 -56.65695 37391 ft 564 kts 84°
2026-05-06 01:27 40.44561 -56.55509 37392 ft 565 kts 84°
2026-05-06 01:27 40.45717 -56.45300 37391 ft 566 kts 84°
2026-05-06 01:28 40.46868 -56.35063 37400 ft 567 kts 84°
2026-05-06 01:28 40.48009 -56.24824 37395 ft 567 kts 84°
2026-05-06 01:29 40.49143 -56.14563 37397 ft 568 kts 84°
2026-05-06 01:29 40.50270 -56.04280 37399 ft 568 kts 84°
2026-05-06 01:30 40.51388 -55.93991 37400 ft 569 kts 84°
2026-05-06 01:30 40.52498 -55.83689 37403 ft 570 kts 84°
2026-05-06 01:31 40.53594 -55.73432 37404 ft 570 kts 84°
2026-05-06 01:31 40.54687 -55.63111 37398 ft 570 kts 84°
2026-05-06 01:32 40.55772 -55.52773 37400 ft 571 kts 84°
2026-05-06 01:32 40.56849 -55.42424 37400 ft 571 kts 84°
2026-05-06 01:33 40.57917 -55.32064 37403 ft 572 kts 84°
2026-05-06 01:33 40.58976 -55.21703 37401 ft 572 kts 84°
2026-05-06 01:34 40.60027 -55.11327 37406 ft 572 kts 84°
2026-05-06 01:34 40.61069 -55.00939 37408 ft 573 kts 85°
2026-05-06 01:35 40.62104 -54.90537 37409 ft 573 kts 85°
2026-05-06 01:35 40.63130 -54.80112 37410 ft 574 kts 85°
2026-05-06 01:36 40.64147 -54.69688 37409 ft 574 kts 85°
2026-05-06 01:36 40.65149 -54.59321 37411 ft 575 kts 85°
2026-05-06 01:37 40.66149 -54.48874 37411 ft 575 kts 85°
2026-05-06 01:37 40.67141 -54.38405 37415 ft 576 kts 85°
2026-05-06 01:38 40.68124 -54.27931 37413 ft 576 kts 85°
2026-05-06 01:38 40.69100 -54.17435 37417 ft 577 kts 85°
2026-05-06 01:39 40.70065 -54.06944 37418 ft 577 kts 85°
2026-05-06 01:39 40.71022 -53.96430 37416 ft 578 kts 85°
2026-05-06 01:40 40.71970 -53.85909 37418 ft 578 kts 85°
2026-05-06 01:40 40.72910 -53.75377 37420 ft 578 kts 85°
2026-05-06 01:41 40.73839 -53.64842 37420 ft 579 kts 85°
2026-05-06 01:41 40.74761 -53.54290 37421 ft 579 kts 85°
2026-05-06 01:42 40.75673 -53.43728 37428 ft 580 kts 85°
2026-05-06 01:42 40.76576 -53.33155 37429 ft 580 kts 85°
2026-05-06 01:43 40.77465 -53.22642 37424 ft 581 kts 85°
2026-05-06 01:43 40.78351 -53.12040 37426 ft 581 kts 85°
2026-05-06 01:44 40.79227 -53.01440 37433 ft 581 kts 85°
2026-05-06 01:44 40.80094 -52.90827 37429 ft 582 kts 85°
2026-05-06 01:45 40.80952 -52.80203 37435 ft 582 kts 85°
2026-05-06 01:45 40.81801 -52.69571 37437 ft 583 kts 85°
2026-05-06 01:46 40.82641 -52.58920 37437 ft 583 kts 85°
2026-05-06 01:46 40.83473 -52.48254 37440 ft 583 kts 85°
2026-05-06 01:47 40.84288 -52.37667 37436 ft 584 kts 85°
2026-05-06 01:47 40.85099 -52.27000 37443 ft 584 kts 85°
2026-05-06 01:48 40.85902 -52.16323 37442 ft 584 kts 86°
2026-05-06 01:48 40.86695 -52.05632 37439 ft 585 kts 86°
2026-05-06 01:49 40.87479 -51.94931 37441 ft 585 kts 86°
2026-05-06 01:49 40.88253 -51.84220 37442 ft 585 kts 86°
2026-05-06 01:50 40.89018 -51.73500 37442 ft 586 kts 86°
2026-05-06 01:50 40.89774 -51.62771 37441 ft 586 kts 86°
2026-05-06 01:51 40.90525 -51.51970 37444 ft 586 kts 86°
2026-05-06 01:51 40.91137 -51.43041 37447 ft 587 kts 86°
2026-05-06 01:52 40.91865 -51.32298 37448 ft 587 kts 86°
2026-05-06 01:52 40.92583 -51.21549 37448 ft 587 kts 86°
2026-05-06 01:53 40.93292 -51.10785 37453 ft 587 kts 86°
2026-05-06 01:53 40.93991 -51.00017 37454 ft 588 kts 86°
2026-05-06 01:54 40.94681 -50.89242 37453 ft 588 kts 86°
2026-05-06 01:54 40.95357 -50.78522 37456 ft 588 kts 86°
2026-05-06 01:55 40.96026 -50.67734 37452 ft 589 kts 86°
2026-05-06 01:55 40.96686 -50.56941 37453 ft 589 kts 86°
2026-05-06 01:56 40.97337 -50.46139 37453 ft 589 kts 86°
2026-05-06 01:56 40.97978 -50.35326 37448 ft 589 kts 86°
2026-05-06 01:57 40.98609 -50.24506 37456 ft 589 kts 86°
2026-05-06 01:57 40.99230 -50.13685 37449 ft 590 kts 86°
2026-05-06 01:58 40.99969 -50.02876 37460 ft 590 kts 81°
2026-05-06 01:58 41.01756 -49.92290 37453 ft 589 kts 70°
2026-05-06 01:59 41.04353 -49.82091 37459 ft 588 kts 69°
2026-05-06 01:59 41.06996 -49.71821 37465 ft 589 kts 69°
2026-05-06 02:00 41.09580 -49.61511 37460 ft 590 kts 70°
2026-05-06 02:00 41.12122 -49.51167 37458 ft 590 kts 70°
2026-05-06 02:01 41.14650 -49.40808 37463 ft 590 kts 70°
2026-05-06 02:01 41.17174 -49.30446 37461 ft 590 kts 70°
2026-05-06 02:02 41.19696 -49.20063 37457 ft 591 kts 70°
2026-05-06 02:02 41.22207 -49.09685 37456 ft 590 kts 70°
2026-05-06 02:03 41.24708 -48.99296 37460 ft 590 kts 70°
2026-05-06 02:03 41.27198 -48.88903 37455 ft 590 kts 70°
2026-05-06 02:04 41.29664 -48.78568 37453 ft 590 kts 70°
2026-05-06 02:04 41.32133 -48.68171 37457 ft 590 kts 70°
2026-05-06 02:05 41.34592 -48.57766 37454 ft 589 kts 70°
2026-05-06 02:05 41.37044 -48.47346 37452 ft 589 kts 70°
2026-05-06 02:06 41.39485 -48.36925 37471 ft 589 kts 70°
2026-05-06 02:06 41.41915 -48.26504 37459 ft 589 kts 70°
2026-05-06 02:07 41.44338 -48.16065 37457 ft 590 kts 70°
2026-05-06 02:07 41.46752 -48.05614 37463 ft 590 kts 70°
2026-05-06 02:08 41.49156 -47.95159 37463 ft 590 kts 70°
2026-05-06 02:08 41.51538 -47.84753 37460 ft 590 kts 70°
2026-05-06 02:09 41.53922 -47.74282 37459 ft 590 kts 70°
2026-05-06 02:09 41.56298 -47.63804 37457 ft 590 kts 70°
2026-05-06 02:10 41.58664 -47.53317 37461 ft 589 kts 70°
2026-05-06 02:10 41.61021 -47.42820 37454 ft 589 kts 71°
2026-05-06 02:11 41.63368 -47.32319 37458 ft 589 kts 71°
2026-05-06 02:11 41.65706 -47.21809 37458 ft 590 kts 71°
2026-05-06 02:12 41.68033 -47.11295 37459 ft 590 kts 71°
2026-05-06 02:12 41.70350 -47.00774 37454 ft 589 kts 71°
2026-05-06 02:13 41.72644 -46.90312 37454 ft 589 kts 71°
2026-05-06 02:13 41.74957 -46.79710 37457 ft 589 kts 71°
2026-05-06 02:14 41.77227 -46.69250 37456 ft 589 kts 71°
2026-05-06 02:14 41.79505 -46.58704 37459 ft 589 kts 71°
2026-05-06 02:15 41.81771 -46.48161 37457 ft 588 kts 71°
2026-05-06 02:15 41.84027 -46.37611 37457 ft 588 kts 71°
2026-05-06 02:16 41.86273 -46.27061 37457 ft 588 kts 71°
2026-05-06 02:16 41.88509 -46.16500 37455 ft 588 kts 71°
2026-05-06 02:17 41.90733 -46.05940 37454 ft 588 kts 72°
2026-05-06 02:17 41.92948 -45.95376 37454 ft 587 kts 72°
2026-05-06 02:18 41.95137 -45.84879 37455 ft 587 kts 72°
2026-05-06 02:18 41.97328 -45.74319 37454 ft 587 kts 72°
2026-05-06 02:19 41.99522 -45.63694 37454 ft 586 kts 72°
2026-05-06 02:19 42.01677 -45.53199 37451 ft 586 kts 72°
2026-05-06 02:20 42.04911 -45.37354 37450 ft 585 kts 72°
2026-05-06 02:21 42.07052 -45.26791 37448 ft 585 kts 72°
2026-05-06 02:21 42.09185 -45.16215 37445 ft 585 kts 72°
2026-05-06 02:22 42.11308 -45.05636 37452 ft 584 kts 73°
2026-05-06 02:22 42.13418 -44.95063 37449 ft 584 kts 73°
2026-05-06 02:23 42.15517 -44.84486 37444 ft 584 kts 73°
2026-05-06 02:23 42.17606 -44.73908 37443 ft 584 kts 73°
2026-05-06 02:24 42.19670 -44.63402 37441 ft 583 kts 73°
2026-05-06 02:24 42.21740 -44.52809 37441 ft 583 kts 73°
2026-05-06 02:25 42.23797 -44.42227 37445 ft 583 kts 73°
2026-05-06 02:25 42.25842 -44.31646 37445 ft 583 kts 73°
2026-05-06 02:26 42.27878 -44.21057 37442 ft 583 kts 74°
2026-05-06 02:26 42.29906 -44.10453 37446 ft 583 kts 74°
2026-05-06 02:27 42.31922 -43.99852 37440 ft 583 kts 74°
2026-05-06 02:27 42.33914 -43.89315 37443 ft 583 kts 74°
2026-05-06 02:28 42.35911 -43.78702 37438 ft 582 kts 74°
2026-05-06 02:28 42.37897 -43.68081 37434 ft 582 kts 74°
2026-05-06 02:29 42.39874 -43.57458 37437 ft 582 kts 75°
2026-05-06 02:29 42.41839 -43.46834 37435 ft 582 kts 75°
2026-05-06 02:30 42.43796 -43.36191 37432 ft 582 kts 75°
2026-05-06 02:30 42.45744 -43.25543 37434 ft 582 kts 75°
2026-05-06 02:31 42.47680 -43.14895 37431 ft 582 kts 75°
2026-05-06 02:31 42.49594 -43.04308 37429 ft 582 kts 75°
2026-05-06 02:32 42.51511 -42.93649 37429 ft 582 kts 75°
2026-05-06 02:32 42.53417 -42.82984 37424 ft 582 kts 75°
2026-05-06 02:33 42.55313 -42.72317 37426 ft 582 kts 76°
2026-05-06 02:33 42.55952 -42.68708 37429 ft 582 kts 76°
2026-05-06 02:34 42.59076 -42.50955 37423 ft 582 kts 76°
2026-05-06 02:34 42.60944 -42.40256 37422 ft 582 kts 76°
2026-05-06 02:35 42.62802 -42.29552 37421 ft 582 kts 76°
2026-05-06 02:35 42.64650 -42.18843 37422 ft 582 kts 76°
2026-05-06 02:36 42.66487 -42.08130 37419 ft 582 kts 76°
2026-05-06 02:36 42.68301 -41.97490 37420 ft 582 kts 77°
2026-05-06 02:37 42.70118 -41.86769 37418 ft 582 kts 77°
2026-05-06 02:37 42.71924 -41.76044 37420 ft 582 kts 77°
2026-05-06 02:38 42.73722 -41.65302 37414 ft 582 kts 77°
2026-05-06 02:38 42.75509 -41.54559 37414 ft 582 kts 77°
2026-05-06 02:39 42.77286 -41.43812 37408 ft 582 kts 77°
2026-05-06 02:39 42.79054 -41.33051 37407 ft 582 kts 77°
2026-05-06 02:40 42.80811 -41.22288 37407 ft 583 kts 77°
2026-05-06 02:40 42.82559 -41.11514 37409 ft 583 kts 77°
2026-05-06 02:41 42.84006 -41.02546 37406 ft 583 kts 78°
2026-05-06 02:41 42.85737 -40.91750 37402 ft 583 kts 78°
2026-05-06 02:42 42.87458 -40.80948 37399 ft 583 kts 78°
2026-05-06 02:42 42.89169 -40.70135 37405 ft 583 kts 78°
2026-05-06 02:43 42.90871 -40.59318 37396 ft 584 kts 78°
2026-05-06 02:43 42.92563 -40.48485 37396 ft 584 kts 78°
2026-05-06 02:44 42.94244 -40.37651 37394 ft 584 kts 78°
2026-05-06 02:44 42.95907 -40.26869 37391 ft 584 kts 78°
2026-05-06 02:45 42.97567 -40.16026 37389 ft 584 kts 78°